Retour au catalogue

STARLINK-36725

ActifCommunicationsVLEO
NORAD 68285·PAYLOAD·🇺🇸 United States

Lancé Mar 19, 2026 depuis Vandenberg Space Force Base

Loading…

Prochains Passages (prochaines 24 heures)

TLE

FraisSource: CelesTrak SupGP

Époque: Sep 14, 2026, 22:41 UTC

1 68285C 26055Z   26257.94562500 -.00048635  00000+0 -14368-2 0  2578
2 68285  53.1562 157.7009 0001298  86.7140 213.9686 15.34418220    14

Suivez STARLINK-36725 en temps réel avec AllMySat

Download on the App Store